Regional Weather Roundup
Issued by NWS

Home | Current Version | Previous Version | Graphics & Text | Print | Product List | Glossary On
Versions: 1 2 3 4 5 6 7 8 9 10 11 12 13 14 15 16 17 18 19 20 21 22 23 24 25 26 27 28 29 30 31 32 33 34 35 36 37 38 39 40 41 42 43 44 45 46 47 48 49 50
000
ASUS44 KMEG 170910
RWRTN
TENNESSEE HOURLY STATE WEATHER ROUNDUP
NATIONAL WEATHER SERVICE MEMPHIS TN
400 AM CDT THU APR 17 2014

TNZ002-004-019-021-049-052-054-088>092-171000-
WEST TENNESSEE

CITY           SKY/WX    TMP DP  RH WIND       PRES   REMARKS
MEMPHIS INTL   CLEAR     49  34  56 S6        30.20R
NWS MEMPHIS      N/A     40 N/A N/A MISG        N/A
JACKSON        CLEAR     40  34  79 CALM      30.22R
DYERSBURG      CLEAR     43  28  56 CALM      30.22S
UNION CITY     CLEAR     39  34  81 CALM      30.20R
PARIS          CLEAR     42  30  62 S6        30.22R
LEXINGTON      CLEAR     37  34  87 CALM      30.22S
SAVANNAH       CLEAR     38  35  89 CALM      30.24R
$$

TNZ008-025-027-028-033-062-065-066-171000-
NORTH MIDDLE TENNESSEE

CITY           SKY/WX    TMP DP  RH WIND       PRES   REMARKS
NASHVILLE      CLEAR     48  32  53 S10       30.28R
DICKSON        CLEAR     48  30  49 S14       30.23R
PORTLAND       CLEAR     45  30  57 S9        30.26R
CLARKSVILLE    CLEAR     44  33  65 S6        30.24R
SMYRNA         CLEAR     45  32  60 S6        30.29R
MURFREESBORO   CLEAR     50  31  48 S12       30.28R
COOKEVILLE     CLEAR     46  28  49 S6        30.29S
LIVINGSTON     PTCLDY    45  25  45 S7        30.29R
GALLATIN       CLEAR     40  34  79 CALM      30.28R
CROSSVILLE     PTCLDY    43  26  51 S6        30.31S
$$

TNZ061-075-076-078-094-096-097-171000-
SOUTH MIDDLE TENNESSEE

CITY           SKY/WX    TMP DP  RH WIND       PRES   REMARKS
LEWISBURG      CLEAR     47  31  54 SE8       30.27R
FAYETTEVILLE   CLEAR     43  30  60 S10       30.29S
TULLAHOMA        N/A     46  27  46 S10       30.30R
WINCHESTER     CLEAR     46  28  49 S9        30.31R
MCMINNVILLE    CLEAR     48  28  46 VRB6      30.30R
COLUMBIA       CLEAR     50  36  57 SE8       30.24S
SHELBYVILLE    CLEAR     48  30  49 S6        30.30R
$$

TNZ017-018-042-046-047-171000-
NORTHEAST TENNESSEE

CITY           SKY/WX    TMP DP  RH WIND       PRES   REMARKS
TRI CITIES     CLEAR     37  20  50 CALM      30.39R
ELIZABETHTON   SUNNY     39  21  48 CALM      30.40R
$$

TNZ012-013-036-069-073-074-171000-
CENTRAL EAST TENNESSEE

CITY           SKY/WX    TMP DP  RH WIND       PRES   REMARKS
KNOXVILLE      CLEAR     37  32  82 CALM      30.34R
OAK RIDGE      CLEAR     38  32  79 CALM      30.36R
$$

TNZ083-085-099-171000-
SOUTHEAST TENNESSEE

CITY           SKY/WX    TMP DP  RH WIND       PRES   REMARKS
CHATTANOOGA    PTCLDY    46  30  53 SE3       30.34S
$$

SKY/WX REPORTED AS FAIR MEANS FEW OR NO CLOUDS BELOW
12 THOUSAND FEET.




USA.gov is the U.S. government's official web portal to all federal, state and local government web resources and services.